Weather in Yaroslavka

Russia / Yaroslavl Oblast     57°44′32″N   39°50′23″E
temp.,
°C
wind,
m/s
gust,
m/s
humid.,
%
clouds,
%
prec.,
mm/h
press.,
hPa
HPBL,
m
15 april, thu
thu1500:00+11nw227391 0.0 101816
03:00+9n379449 0.0 1018121
06:00+9nne5791100 0.0 1019383
09:00+10ne5885100 0.0 1020551
12:00+11ne6877100 0.0 1021738
15:00+11ne7972100 0.0 1022854
18:00+9ne71175100 0.0 1023750
21:00+7ne61482100 0.0 1024589
16 april, fri
fri1600:00+6ene7148197 0.0 1025561
03:00+5ene61382100 0.0 1025540
06:00+4ene61383100 0.0 1026478
09:00+6ene7106896 0.0 1027568
12:00+10ene785560 0.0 1027915
15:00+12ene78476 0.0 10271203
18:00+11ene694446 0.0 1027909
21:00+7ene6135836 0.0 1028395
17 april, sat
sat1700:00+5ene512705 0.0 1029332
03:00+3ene5127611 0.0 1030299
06:00+2ene512787 0.0 1030304
09:00+7ene610565 0.0 1030603
12:00+11ene68405 0.0 10301164
15:00+12ene67375 0.0 10291388
18:00+11ene58451 0.0 1028677
21:00+7ne410650 0.0 1029206
18 april, sun
sun1800:00+5ne410730 0.0 1029212
03:00+3ne410800 0.0 1029203
06:00+3ne4108171 0.0 1030240
09:00+7ene5862100 0.0 1030525
12:00+10ene6745100 0.0 10291258
15:00+12ene6841100 0.0 10291491
18:00+11ne4851100 0.0 1029500
21:00+8ne41167100 0.0 1029249
19 april, mon
mon1900:00+6e51178100 0.0 1030414
03:00+4ene4885100 0.0 1031273
06:00+3ene4882100 0.0 1032314
09:00+6e5852100 0.0 1032701
12:00+8e6739100 0.0 10321334
15:00+9e563694 0.0 10311587
18:00+8e454397 0.0 1031930
21:00+5e235688 0.0 103142